NAKANO
         **** Don't distribute anyone except personal use only ****
                (C) Copyright 2009 OAA/ComputingSection
write mail from CFAD0::NAKANO on 2009-05-12 03:07:00(JST).




    C/2005 L3 (McNaught)

Epoch 2008 Jan. 15.0 TT = JDT 2454480.5  

T 2008 Jan. 16.00868 TT                                 Nakano

q   5.5932562            (2000.0)            P               Q

z  +0.0000187      Peri.   47.09717     -0.30837582     -0.72516156

 +/-0.0000006      Node   288.73906     -0.94495661     +0.30793040

e   0.9998956      Incl.  139.44869     +0.10936801     +0.61588926

From 1566 observations 2004 July 16-2008 Mar. 21, mean residual 0".52.

   (1/a)org.= +0.000054, (1/a)fut.= +0.000285 (+/-0.000001), Q= 8.

   The comet has passed 1.89 AU from Jupiter on 2007 July 30 UT.



NAKANO

         **** Don't distribute anyone except personal use only ****

                (C) Copyright 2008 OAA/ComputingSection

write mail from CFAD0::NAKANO on 2008-03-30 06:43:41(JST).

 

    C/2005 L3 (McNaught)

Epoch 2008 Jan. 15.0 TT = JDT 2454480.5  

T 2008 Jan. 16.00788 TT                                 Nakano

q   5.5932597            (2000.0)            P               Q

z  +0.0000171      Peri.   47.09712     -0.30837518     -0.72516178

 +/-0.0000007      Node   288.73905     -0.94495688     +0.30792958

e   0.9999046      Incl.  139.44869     +0.10936749     +0.61588941

From 1495 observations 2004 July 16-2007 Nov. 4, mean residual 0".53.

   (1/a)org.= +0.000052, (1/a)fut.= +0.000283 (+/-0.000001), Q= 8.



NAKANO

         **** Don't distribute anyone except personal use only ****

                (C) Copyright 2007 OAA/ComputingSection

write mail from CFAD0::NAKANO on 2007-11-30 09:05:11(JST).

 



***  The comet has passed 1.89 AU from Jupiter on 2007 July 30 UT.  ***



    C/2005 L3 (McNaught)

Epoch 2008 Jan. 15.0 TT = JDT 2454480.5  

T 2008 Jan. 16.00744 TT                                 Nakano

q   5.5932624            (2000.0)            P               Q

z  +0.0000167      Peri.   47.09708     -0.30837455     -0.72516199

 +/-0.0000007      Node   288.73905     -0.94495713     +0.30792881

e   0.9999066      Incl.  139.44868     +0.10936705     +0.61588955

From 1412 observations 2004 July 16-2007 Sept. 10, mean residual 0".52.

   (1/a)org.= +0.000052, (1/a)fut.= +0.000283 (+/-0.000001), Q= 8.



NAKANO

         **** Don't distribute anyone except personal use only ****

                (C) Copyright 2007 OAA/ComputingSection

write mail from CFAD0::NAKANO on 2007-09-16 02:42:26(JST).

 



    C/2005 L3 (McNaught)

Epoch 2008 Jan. 15.0 TT = JDT 2454480.5  

T 2008 Jan. 16.00646 TT                                 Nakano

q   5.5932706            (2000.0)            P               Q

z  +0.0000163      Peri.   47.09694     -0.30837295     -0.72516279

 +/-0.0000009      Node   288.73905     -0.94495784     +0.30792661

e   0.9999089      Incl.  139.44870     +0.10936548     +0.61588971

From 826 observations 2004 July 16-2007 July 24, mean residual 0".55.

   (1/a)org.= +0.000052, (1/a)fut.= +0.000282 (+/-0.000001), Q= 8.



NAKANO

         **** Don't distribute anyone except personal use only ****

                (C) Copyright 2007 OAA/ComputingSection

write mail from CFAD0::NAKANO on 2007-08-13 06:04:57(JST).

 

    C/2005 L3 (McNaught)

Epoch 2008 Jan. 15.0 TT = JDT 2454480.5  

T 2008 Jan. 16.00858 TT                                 Nakano

q   5.5932537            (2000.0)            P               Q

z  +0.0000175      Peri.   47.09721     -0.30837666     -0.72516146

 +/-0.0000011      Node   288.73905     -0.94495632     +0.30793118

e   0.9999019      Incl.  139.44872     +0.10936816     +0.61588899

From 676 observations 2004 July 16-2007 July 5, mean residual 0".58.

   (1/a)org.= +0.000053, (1/a)fut.= +0.000283 (+/-0.000001), Q= 8.



NAKANO

         **** Don't distribute anyone except personal use only ****

                (C) Copyright 2007 OAA/ComputingSection

write mail from CFAD0::NAKANO on 2007-07-09 03:50:16(JST).

 

◎C/2005 L3の軌道と予報位置



 来年1月に近日点を通過するこの彗星が13等級で明るく観測されています.

来年も,この明るさで観測できるでしょう.CCD全光度は,上尾の門田健一氏が

5月27日に14.7等,洲本の中野主一氏が6月11日に13.8等と観測しています.



    C/2005 L3 (McNaught)

Epoch 2008 Jan. 15.0 TT = JDT 2454480.5  

T 2008 Jan. 16.00936 TT                                 Nakano

q   5.5932458            (2000.0)            P               Q

z  +0.0000180      Peri.   47.09732     -0.30837850     -0.72516101

 +/-0.0000012      Node   288.73904     -0.94495561     +0.30793320

e   0.9998996      Incl.  139.44875     +0.10936905     +0.61588851

From 506 observations 2004 July 16-2007 June 11, mean residual 0".60.

   (1/a)org.= +0.000053, (1/a)fut.= +0.000284 (+/-0.000001), Q= 8.

 

Date/  0h TT  R.A.(2000) Decl.     Delta   r     Daily motion  Mag.  Moon Age

                h  m       。  ,                      ,  / PA 。  m1      。

2007 May  30  18 19.88  -05 36.8   4.953  5.838    17.3 / 288  13.7   54  .96

     June  9  18 08.86  -04 43.2   4.873  5.818    18.0 / 286  13.7   82  .44

          19  17 57.26  -03 54.0   4.831  5.798    18.1 / 284  13.6  129  .18

          29  17 45.52  -03 10.5   4.829  5.780    17.5 / 282  13.6   26  .97

     July  9  17 34.12  -02 33.8   4.865  5.762    16.2 / 280  13.6  125  .35

          19  17 23.47  -02 04.2   4.936  5.745    14.5 / 279  13.7   91  .21

          29  17 13.92  -01 41.9   5.038  5.729    12.4 / 277  13.7   42  .99

     Aug.  8  17 05.71  -01 26.2   5.165  5.714    10.2 / 276  13.7  153  .27

          18  16 58.95  -01 16.3   5.310  5.700     7.9 / 274  13.8   57  .23

          28  16 53.69  -01 10.8   5.467  5.686     5.7 / 272  13.8   77 1.00

     Sept. 7  16 49.86  -01 08.6   5.629  5.674     3.7 / 270  13.9  134  .20

          17  16 47.38  -01 08.5   5.789  5.662     1.9 / 268  14.0   31  .25

          27  16 46.13  -01 09.2   5.943  5.651      .3 / 262  14.0  113 1.00

     Oct.  7  16 45.96  -01 09.5   6.085  5.641     1.2 /  85  14.1  103  .16

          17  16 46.73  -01 08.6   6.211  5.632     2.4 /  82  14.1   30  .28

          27  16 48.28  -01 05.3   6.318  5.624     3.3 /  79  14.1  143  .99

     Nov.  6  16 50.47  -00 58.9   6.402  5.617     4.2 /  76  14.2   74  .14

          16  16 53.15  -00 48.6   6.461  5.611     4.8 /  72  14.2   53  .30

          26  16 56.18  -00 33.5   6.494  5.606     5.3 /  67  14.2  152  .97

     Dec.  6  16 59.41  -00 13.0   6.500  5.601     5.6 /  62  14.2   48  .12

          16  17 02.70  +00 13.6   6.478  5.598     5.8 /  55  14.2   82  .35

          26  17 05.89  +00 47.0   6.429  5.595     6.0 /  47  14.1  129  .95

2008 Jan.  5  17 08.85  +01 27.7   6.355  5.594     6.2 /  38  14.1   31  .11

          15  17 11.41  +02 16.3   6.257  5.593     6.4 /  28  14.1  112  .41

          25  17 13.42  +03 13.2   6.139  5.594     6.8 /  16  14.0  101  .93

     Feb.  4  17 14.69  +04 18.9   6.003  5.595     7.5 /   4  14.0   37  .10

          14  17 15.06  +05 33.4   5.854  5.597     8.4 / 353  13.9  139  .48

          24  17 14.36  +06 56.8   5.698  5.600     9.6 / 342  13.9   73  .92

     Mar.  5  17 12.40  +08 28.5   5.538  5.605    11.1 / 333  13.8   61  .09

          15  17 09.02  +10 07.6   5.382  5.610    12.7 / 325  13.8  140  .56

          25  17 04.10  +11 52.4   5.236  5.616    14.5 / 319  13.7   50  .90

     Apr.  4  16 57.55  +13 40.6   5.106  5.623    16.1 / 313  13.7   92  .06

          14  16 49.36  +15 28.9   4.998  5.630    17.4 / 307  13.6  111  .63

          24  16 39.64  +17 13.2   4.918  5.639    18.4 / 302  13.6   44  .89

     May   4  16 28.62  +18 49.2   4.870  5.649    18.9 / 297  13.6  123  .04

          14  16 16.65  +20 12.8   4.857  5.660    18.7 / 292  13.6   78  .69

          24  16 04.19  +21 20.4   4.879  5.671    18.0 / 287  13.6   65  .87

     June  3  15 51.77  +22 10.3   4.935  5.683    16.8 / 281  13.6  133  .01

          13  15 39.89  +22 41.9   5.024  5.697    15.1 / 276  13.7   51  .73

          23  15 28.99  +22 56.3   5.139  5.711    13.3 / 270  13.7   95  .84

     July  3  15 19.37  +22 55.7   5.276  5.726    11.3 / 264  13.8  110  .00

          13  15 11.24  +22 43.0   5.430  5.742     9.4 / 257  13.9   46  .76

          23  15 04.66  +22 21.1   5.594  5.758     7.6 / 248  13.9  124  .79

     Aug.  2  14 59.61  +21 52.9   5.763  5.776     6.0 / 238  14.0   80  .00

          12  14 56.00  +21 20.9   5.931  5.794     4.6 / 224  14.1   62  .78

          22  14 53.72  +20 47.4   6.093  5.814     3.7 / 205  14.2  139  .72

     Sept. 1  14 52.61  +20 14.2   6.245  5.834     3.1 / 182  14.2   53  .02

          11  14 52.53  +19 42.8   6.383  5.855     3.0 / 158  14.3   85  .80

          21  14 53.32  +19 14.6   6.504  5.876     3.2 / 138  14.3  127  .64

     Oct.  1  14 54.84  +18 50.6   6.605  5.899     3.5 / 122  14.4   39  .03

          11  14 56.93  +18 32.0   6.683  5.922     3.8 / 109  14.4  109  .83

          21  14 59.46  +18 19.6   6.738  5.946     4.1 /  97  14.4  101  .56

          31  15 02.30  +18 14.2   6.769  5.970     4.3 /  86  14.5   45  .04

     Nov. 10  15 05.30  +18 16.7   6.775  5.996     4.4 /  75  14.5  130  .86

          20  15 08.32  +18 27.9   6.756  6.022     4.6 /  63  14.5   74  .49

          30  15 11.24  +18 48.5   6.715  6.048     4.8 /  51  14.5   63  .05

     Dec. 10  15 13.88  +19 19.2   6.652  6.076     5.2 /  37  14.5  139  .89

          20  15 16.11  +20 00.4   6.571  6.104     5.7 /  24  14.5   52  .44

          30  15 17.75  +20 52.7   6.474  6.133     6.5 /  11  14.5   87  .05

NAKANO

         **** Don't distribute anyone except personal use only ****

                (C) Copyright 2007 OAA/ComputingSection

write mail from CFAD0::NAKANO on 2007-06-13 04:23:32(JST).

 

    C/2005 L3 (McNaught)

Epoch 2008 Jan. 15.0 TT = JDT 2454480.5  

T 2008 Jan. 16.00312 TT                                 Nakano

q   5.5932978            (2000.0)            P               Q

